This is the latest recevied weather packets stored in our database for station/object KK4KTV-13. If no packets are shown the sender has not sent any weather packets the latest 10 day(s).
| Time | Temp. | Humidity | Pressure | Rain* | Wind** | Luminosity | Snow |
|---|---|---|---|---|---|---|---|
| 1777068326 | 25° C | 55% | 1007.4 hPa | 0 mm | - | 114 W/m² | - |
| 1777068022 | 25° C | 54% | 1007.6 hPa | 0 mm | - | 121 W/m² | - |
| 1777067721 | 25° C | 54% | 1007.6 hPa | 0 mm | - | 128 W/m² | - |
| 1777067415 | 25.56° C | 54% | 1007.7 hPa | 0 mm | - | 135 W/m² | - |
| 1777067109 | 25.56° C | 53% | 1007.8 hPa | 0 mm | - | 143 W/m² | - |
| 1777066805 | 25.56° C | 55% | 1007.7 hPa | 0 mm | - | 147 W/m² | - |
| 1777066500 | 26.11° C | 53% | 1007.7 hPa | 0 mm | - | 157 W/m² | - |
| 1777066196 | 26.11° C | 53% | 1007.8 hPa | 0 mm | - | 204 W/m² | - |
| 1777065894 | 26.11° C | 52% | 1007.7 hPa | 0 mm | - | 245 W/m² | - |
| 1777065591 | 26.11° C | 52% | 1007.8 hPa | 0 mm | - | 278 W/m² | - |
| 1777065285 | 26.11° C | 52% | 1007.7 hPa | 0 mm | - | 302 W/m² | - |
| 1777064982 | 26.67° C | 52% | 1007.9 hPa | 0 mm | - | 262 W/m² | - |
| 1777064679 | 26.67° C | 53% | 1007.9 hPa | 0 mm | - | 261 W/m² | - |
| 1777064375 | 26.67° C | 53% | 1008 hPa | 0 mm | - | 307 W/m² | - |
| 1777064071 | 26.67° C | 52% | 1008 hPa | 0 mm | - | 268 W/m² | - |
| 1777063770 | 26.11° C | 53% | 1008.4 hPa | 0 mm | - | 370 W/m² | - |
| 1777063466 | 26.11° C | 51% | 1008.3 hPa | 0 mm | - | 242 W/m² | - |
| 1777063163 | 26.11° C | 51% | 1008.2 hPa | 0 mm | - | 253 W/m² | - |
| 1777062859 | 26.11° C | 51% | 1008.2 hPa | 0 mm | - | 307 W/m² | - |
| 1777062555 | 26.11° C | 52% | 1008.4 hPa | 0 mm | - | 332 W/m² | - |
| 1777062250 | 25.56° C | 53% | 1008.5 hPa | 0 mm | - | 324 W/m² | - |
| 1777061947 | 25.56° C | 54% | 1008.3 hPa | 0 mm | - | 257 W/m² | - |
| 1777061643 | 25.56° C | 55% | 1008.5 hPa | 0 mm | - | 284 W/m² | - |
| 1777061339 | 25.56° C | 54% | 1008.5 hPa | 0 mm | - | 316 W/m² | - |
| 1777061033 | 25.56° C | 54% | 1008.6 hPa | 0 mm | - | 249 W/m² | - |
* Rain latest hour (hover to see other rain measurements)
** Current wind speed in m/s (hover to see current wind gust speed)